Home > Weather > Riehen > Past weeks

Flag for Switzerland Weather for the Past 2 Weeks in Riehen, Basel-Stadt, Switzerland

Now
46 °F

Light rain. Passing clouds.


Feels Like: 44 °F
Forecast: 38 / 43 °F
Wind: 5 mph from West

Location: Bale-Mulhouse

Current Time: Feb 9, 2016 at 8:06:31 AM

Latest Report: Feb 9, 2016 at 7:00 AM


Visibility: N/A

Pressure: 29.68 "Hg

Humidity: 87%

Dew point: 43 °F

Location of RiehenLocation

Historic Weather in Riehen — Graph

°F

Riehen Temperature Yesterday

Maximum temperature yesterday: 57 °F (at 2:30 PM)
Minimum temperature yesterday: 36 °F (at 1:30 AM)
Average temperature yesterday: 47 °F

High & Low Weather Summary for the Past Weeks

 TemperatureHumidityPressure
High57 °F (Jan 26, 3:30 PM)100% (Jan 28, 5:30 PM)30.51 "Hg (Jan 28, 5:30 PM)
Low30 °F (Jan 30, 6:00 AM)38% (Jan 25, 2:30 PM)29.62 "Hg (Feb 7, 7:00 AM)
Average45 °F82%30.19 "Hg
* Reported Jan 25 6:00 AM — Feb 9 6:30 AM, Riehen, Weather by CustomWeather, © 2016

Note: Actual official high and low records may vary slightly from our data, if they occured in-between our weather recording intervals... More about our weather records

Advertising

Riehen Weather History for the Previous 24 Hours

 ConditionsComfort  
Time TempWeatherWind HumidityBarometerVisibility
6:30 AM
Tue, Feb 9
46 °FLight rain. Passing clouds.9 mph87%29.71 "HgN/A
6:00 AM46 °FLight rain. Passing clouds.6 mph82%29.74 "HgN/A
5:30 AM46 °FLight rain. Passing clouds.8 mph82%29.77 "HgN/A
4:30 AM48 °FClear.13 mph71%29.77 "Hg10 mi
4:00 AM50 °FPassing clouds.16 mph67%29.77 "HgN/A
3:30 AM48 °FPartly cloudy.17 mph71%29.80 "HgN/A
2:30 AM45 °FPassing clouds.6 mph81%29.83 "HgN/A
2:00 AM46 °FPassing clouds.15 mph76%29.83 "HgN/A
1:30 AM45 °FPassing clouds.13 mph81%29.86 "HgN/A
1:00 AM46 °FPassing clouds.20 mph76%29.86 "HgN/A
12:30 AM45 °FLight rain. Partly cloudy.22 mph81%29.86 "HgN/A
12:00 AM46 °FRain showers. Passing clouds.13 mph87%29.86 "Hg4 mi
11:30 PM
Mon, Feb 8
48 °FSprinkles. Passing clouds.15 mph82%29.83 "HgN/A
11:00 PM46 °FPartly cloudy.12 mph87%29.83 "HgN/A
10:30 PM46 °FRain showers. Partly cloudy.23 mph87%29.83 "Hg4 mi
10:00 PM46 °FSprinkles. Passing clouds.21 mph87%29.83 "Hg6 mi
9:30 PM46 °FSprinkles. Passing clouds.28 mph82%29.83 "Hg3 mi
9:00 PM48 °FSprinkles. Passing clouds.16 mph82%29.80 "HgN/A
8:30 PM52 °FPassing clouds.22 mph67%29.80 "HgN/A
8:00 PM52 °FPassing clouds.22 mph62%29.80 "HgN/A
7:30 PM52 °FPassing clouds.24 mph67%29.77 "HgN/A
7:00 PM50 °FPartly cloudy.20 mph76%29.77 "HgN/A
6:30 PM50 °FRain showers. Passing clouds.14 mph82%29.77 "HgN/A
6:00 PM48 °FPassing clouds.23 mph87%29.74 "Hg5 mi
5:00 PM54 °FBroken clouds.28 mph63%29.68 "HgN/A
4:30 PM54 °FBroken clouds.26 mph67%29.68 "HgN/A
4:00 PM54 °FRain showers. Partly sunny.31 mph67%29.68 "HgN/A
3:30 PM55 °FRain showers. Partly sunny.28 mph63%29.65 "HgN/A
3:00 PM55 °FBroken clouds.23 mph59%29.65 "HgN/A
2:30 PM57 °FPartly sunny.30 mph55%29.65 "HgN/A
2:00 PM55 °FPartly sunny.17 mph59%29.68 "HgN/A
1:30 PM55 °FRain showers. Partly sunny.25 mph59%29.68 "HgN/A
1:00 PM55 °FPartly sunny.24 mph59%29.68 "HgN/A
12:30 PM55 °FPartly sunny.29 mph55%29.68 "HgN/A
12:00 PM55 °FPartly sunny.30 mph59%29.68 "HgN/A
11:30 AM55 °FPartly sunny.23 mph55%29.68 "HgN/A
11:00 AM55 °FPartly sunny.24 mph51%29.68 "HgN/A
10:30 AM54 °FBroken clouds.23 mph54%29.68 "HgN/A
10:00 AM52 °FBroken clouds.18 mph54%29.71 "HgN/A
9:30 AM52 °FBroken clouds.12 mph54%29.74 "HgN/A
9:00 AM50 °FPassing clouds.10 mph58%29.74 "HgN/A
8:30 AM50 °FBroken clouds.12 mph62%29.77 "HgN/A
8:00 AM50 °FPartly sunny.15 mph62%29.77 "HgN/A
Weather by CustomWeather, © 2016

See weather overviewHow to use our weather pages